Weather History for Jackson, WY

Change the Weather History Date:

Tuesday, April 9, 2013

  Actual Average Record
Temperature  
Mean Temperature 28 °F -  
Max Temperature 37 °F 45 °F 64 °F (2012)
Min Temperature 19 °F 19 °F 7 °F (1978)
Degree Days  
Heating Degree Days 37    
Moisture  
Dew Point 13 °F    
Average Humidity 60    
Maximum Humidity 80    
Minimum Humidity 36    
Precipitation  
Precipitation 0.00 in - - ()
Sea Level Pressure  
Sea Level Pressure 29.95 in    
Wind  
Wind Speed 19 mph (North)    
Max Wind Speed 25 mph    
Max Gust Speed 33 mph    
Visibility 10 miles    
Events      
Averages and records for this station are not official NWS values.
T = Trace of Precipitation, MM = Missing Value Source: NWS Daily Summary

Daily Weather History Graph

Daily Weather History Graph

Search for Another Location

Airport:

Trip Planner

Search our weather history database for the weather conditions in past years. The results will help you decide how hot, cold, wet, or windy it might be!

Date:

Astronomy

Apr. 09, 2013 Rise Set
Actual Time 6:49 AM MDT 7:59 PM MDT
Civil Twilight 6:20 AM MDT 8:29 PM MDT
Nautical Twilight 5:45 AM MDT 9:04 PM MDT
Astronomical Twilight 5:08 AM MDT 9:41 PM MDT
Moon 6:15 AM MDT (4/9) 7:39 PM MDT (4/9)
Length of Visible Light 14h 08m
Length of Day
13h 09m
Waning Crescent, 0% of the Moon is Illuminated
Apr 9
Waning Crescent
Apr 10
New
Apr 18
First Quarter
Apr 25
Full
May 2
Last Quarter

Hourly Weather History & Observations

Time (MDT) Temp. Windchill Dew Point Humidity Pressure Visibility Wind Dir Wind Speed Gust Speed Precip Events Conditions
12:15 AM 23.0 °F 8.7 °F 12.2 °F 63% 29.80 in 10.0 mi NNE 18.4 mph 33.4 mph N/A   Overcast
12:35 AM 23.0 °F 7.6 °F 12.2 °F 63% 29.81 in 10.0 mi North 21.9 mph 33.4 mph N/A   Overcast
1:15 AM 23.0 °F 8.0 °F 12.2 °F 63% 29.83 in 10.0 mi North 20.7 mph 27.6 mph N/A   Overcast
1:35 AM 21.2 °F 5.6 °F 15.8 °F 80% 29.82 in 10.0 mi North 20.7 mph 29.9 mph N/A   Overcast
3:15 AM 21.2 °F 4.5 °F 15.8 °F 80% 29.84 in 10.0 mi North 24.2 mph 33.4 mph N/A   Overcast
3:35 AM 21.2 °F 5.6 °F 15.8 °F 80% 29.84 in 10.0 mi North 20.7 mph 26.5 mph N/A   Overcast
3:55 AM 21.2 °F 4.5 °F 14.0 °F 74% 29.82 in 10.0 mi North 24.2 mph 29.9 mph N/A   Overcast
4:15 AM 21.2 °F 5.6 °F 12.2 °F 68% 29.84 in 10.0 mi North 20.7 mph 33.4 mph N/A   Overcast
4:35 AM 21.2 °F 5.2 °F 12.2 °F 68% 29.84 in 10.0 mi North 21.9 mph 29.9 mph N/A   Overcast
4:55 AM 21.2 °F 6.0 °F 12.2 °F 68% 29.85 in 10.0 mi North 19.6 mph 28.8 mph N/A   Overcast
5:15 AM 21.2 °F 4.5 °F 12.2 °F 68% 29.85 in 10.0 mi North 24.2 mph 33.4 mph N/A   Overcast
5:35 AM 21.2 °F 5.2 °F 12.2 °F 68% 29.87 in 10.0 mi North 21.9 mph 32.2 mph N/A   Overcast
5:55 AM 21.2 °F 4.9 °F 10.4 °F 63% 29.89 in 10.0 mi North 23.0 mph 28.8 mph N/A   Mostly Cloudy
6:15 AM 19.4 °F 2.5 °F 8.6 °F 63% 29.89 in 10.0 mi North 23.0 mph 28.8 mph N/A   Overcast
6:35 AM 19.4 °F 3.2 °F 10.4 °F 68% 29.91 in 10.0 mi North 20.7 mph 24.2 mph N/A   Overcast
6:52 AM 19.4 °F 2.8 °F 8.6 °F 63% 29.91 in 10.0 mi North 21.9 mph 28.8 mph N/A   Mostly Cloudy
6:55 AM 19.4 °F 2.8 °F 8.6 °F 63% 29.91 in 10.0 mi North 21.9 mph 28.8 mph N/A   Overcast
7:52 AM 19.4 °F 2.1 °F 8.6 °F 63% 29.96 in 10.0 mi North 24.2 mph 28.8 mph N/A   Overcast
8:54 AM 21.2 °F 4.5 °F 8.6 °F 58% 29.94 in 10.0 mi North 24.2 mph 29.9 mph N/A   Scattered Clouds
9:53 AM 23.0 °F 6.6 °F 8.6 °F 54% 29.98 in 10.0 mi North 25.3 mph 28.8 mph N/A   Partly Cloudy
10:51 AM 26.6 °F 13.1 °F 10.4 °F 51% 29.98 in 10.0 mi North 19.6 mph 32.2 mph N/A   Partly Cloudy
11:52 AM 28.4 °F 18.0 °F 12.2 °F 51% 30.01 in 10.0 mi North 12.7 mph 25.3 mph N/A   Scattered Clouds
12:53 PM 30.2 °F 19.3 °F 14.0 °F 51% 30.00 in 10.0 mi North 15.0 mph 27.6 mph N/A   Mostly Cloudy
1:52 PM 32.0 °F 20.1 °F 15.8 °F 51% 29.98 in 10.0 mi NNW 19.6 mph 28.8 mph N/A   Partly Cloudy
2:52 PM 33.8 °F 23.2 °F 12.2 °F 41% 29.97 in 10.0 mi NNW 17.3 mph 23.0 mph N/A   Partly Cloudy
3:51 PM 35.6 °F 24.5 °F 14.0 °F 41% 29.97 in 10.0 mi North 20.7 mph 26.5 mph N/A   Clear
4:52 PM 37.4 °F 27.2 °F 12.2 °F 36% 29.98 in 10.0 mi NNW 19.6 mph 28.8 mph N/A   Scattered Clouds
5:54 PM 37.4 °F 27.8 °F 12.2 °F 36% 29.99 in 10.0 mi NNW 17.3 mph 28.8 mph N/A   Scattered Clouds
6:52 PM 37.4 °F 26.9 °F 14.0 °F 38% 30.01 in 10.0 mi North 20.7 mph - N/A   Scattered Clouds
7:51 PM 33.8 °F 25.3 °F 14.0 °F 44% 30.02 in 10.0 mi North 11.5 mph - N/A   Scattered Clouds
8:51 PM 33.8 °F 25.3 °F 15.8 °F 48% 30.03 in 10.0 mi North 11.5 mph - N/A   Scattered Clouds
8:55 PM 30.2 °F 23.4 °F 17.6 °F 60% 30.05 in 10.0 mi NE 6.9 mph - N/A   Overcast
9:15 PM 30.2 °F 22.6 °F 17.6 °F 60% 30.06 in 10.0 mi NE 8.1 mph - N/A   Scattered Clouds
9:35 PM 30.2 °F 22.6 °F 17.6 °F 60% 30.06 in 10.0 mi NE 8.1 mph - N/A   Clear
10:15 PM 28.4 °F 19.7 °F 15.8 °F 59% 30.07 in 10.0 mi ENE 9.2 mph - N/A   Clear
10:35 PM 28.4 °F 24.6 °F 15.8 °F 59% 30.08 in 10.0 mi NE 3.5 mph - N/A   Clear
10:55 PM 26.6 °F - 15.8 °F 64% 30.08 in 10.0 mi Calm Calm - N/A   Clear
11:15 PM 24.8 °F - 15.8 °F 69% 30.09 in - Calm Calm - N/A   Clear
11:35 PM 26.6 °F - 15.8 °F 64% 30.09 in - Calm Calm - N/A   Clear
11:55 PM 24.8 °F - 15.8 °F 69% 30.09 in 10.0 mi Calm Calm - N/A   Clear